Temp
92 88 84 89 89 88 86 85 83 88 87 84 84 84 86 88 89 89 90 91 92 93 96 98 97 99 98 97 95 93 91 90 90 90 90 91 91 93 94 95 92 90 91 87
87 83 92 91 90 88 87 84 84 87 85 84 85 84 88 88 88 90 90 91 92 94 96 96 97 98 98 97 95 92 91 89 89 92 92 93 93 95 95 96 93 92 91 88
84 90 93 89 88 86 88 85 83 82 85 85 84 84 83 88 89 91 93 95 95 94 95 96 96 97 97 96 95 93 90 90 89 91 92 91 91 91 92 93 94 95 91 89
88 94 87 87 85 89 83 88 86 83 83 78 86 75 84 85 85 87 91 93 95 95 96 97 98 98 99 98 98 95 93 90 91 89 91 88 91 91 95 95 95 91 87 89
85 85 85 84 87 89 85 88 86 84 85 84 80 80 84 84 83 85 89 93 95 97 98 97 99 100 101 101 100 98 93 90 90 89 89 91 88 95 95 95 85 88 87 88
88 91 89 90 93 91 90 87 87 87 87 76 79 80 85 86 87 90 91 93 95 96 98 99 100 101 100 102 100 98 93 88 89 89 87 88 89 89 92 90 90 92 92 89
85 86 91 91 87 90 88 86 75 73 75 73 82 79 84 91 93 92 92 93 95 97 96 98 98 99 99 99 98 98 94 89 89 89 89 88 88 88 88 89 92 91 91 91
78 77 87 92 87 86 86 87 77 64 70 75 80 75 85 94 95 95 96 97 96 96 99 98 99 99 98 98 98 98 96 90 90 89 88 88 88 91 91 91 94 92 92 91
79 77 89 90 94 91 86 79 91 81 84 76 83 85 94 95 93 93 94 94 95 97 98 96 99 100 99 98 98 97 95 93 92 93 89 87 87 88 91 91 89 92 91 91
85 75 86 88 90 90 88 93 80 82 67 66 79 78 84 88 89 91 93 93 95 96 98 99 99 100 101 102 102 100 98 95 94 94 91 90 89 88 90 90 88 90 89 88
89 84 81 86 84 85 84 83 85 86 83 72 71 82 92 89 88 90 94 96 98 97 97 99 99 101 102 102 103 102 99 96 94 93 92 90 90 90 90 90 88 88 88 86
89 87 78 82 90 91 90 87 89 78 74 80 79 79 95 91 91 91 91 96 98 98 99 100 100 99 99 99 99 98 99 97 94 92 90 89 90 90 91 90 89 87 86 86
87 82 75 78 86 86 84 88 89 90 89 78 76 82 94 91 89 89 89 92 94 95 96 98 101 100 97 97 97 95 94 95 94 92 91 92 91 91 91 90 90 87 86 85
81 86 80 75 79 86 81 84 87 88 80 81 82 85 90 88 85 88 89 90 92 95 95 95 96 96 96 93 92 92 92 93 93 93 92 91 90 91 92 90 88 87 85 84
88 80 81 84 83 84 85 85 85 83 87 80 82 83 89 86 86 87 89 92 92 95 97 97 96 95 92 90 90 90 91 91 93 90 90 90 90 90 89 86 85 85 84 84
88 79 80 78 80 82 80 85 86 86 83 84 84 84 91 90 90 88 88 89 89 93 97 99 98 97 95 92 90 90 89 90 91 89 89 89 87 86 86 81 81 80 80 80
82 81 77 73 78 79 74 82 84 86 86 86 81 87 89 88 86 86 88 89 88 90 92 97 99 99 101 98 94 92 90 91 89 87 88 86 85 83 81 81 80 79 79 76
79 79 77 73 75 64 80 85 85 83 85 88 87 88 87 86 88 89 91 89 89 91 91 93 97 102 101 102 101 97 94 89 87 86 86 84 81 80 79 80 79 77 74 73
85 80 74 70 69 77 79 81 80 79 82 89 86 87 86 87 89 88 90 91 91 93 95 95 97 99 98 99 97 93 91 88 87 85 79 77 74 66 61 62 61 73 75 74
83 82 75 73 66 63 80 86 88 86 75 86 86 84 84 87 82 85 89 91 92 94 96 94 96 97 94 93 93 90 89 88 84 75 72 66 65 66 65 65 62 71 76 73
74 74 71 71 68 75 80 82 84 70 73 82 85 84 84 85 83 87 90 90 92 94 94 96 94 92 91 92 92 88 87 79 73 66 67 70 67 68 67 66 68 70 70 68
71 70 71 72 66 63 80 80 74 77 83 82 84 84 82 84 86 88 89 90 91 92 93 95 90 89 90 91 88 79 77 72 67 73 74 71 70 70 68 70 67 68 66 66
66 75 71 73 72 77 80 80 84 85 80 81 83 86 86 86 86 88 89 90 91 90 91 94 91 82 81 83 83 78 72 71 74 75 68 74 71 71 71 69 67 67 65 67
70 73 73 72 78 79 81 84 86 86 85 86 87 87 88 85 88 89 89 91 91 90 87 89 87 82 77 78 78 76 73 75 75 76 75 75 74 70 71 70 71 70 68 69
69 69 70 73 78 81 81 82 84 85 86 86 87 87 86 87 88 89 89 89 90 89 88 86 84 82 80 79 77 76 75 75 75 76 76 73 71 70 70 72 76 77 76 76
71 72 70 68 77 75 77 84 84 82 84 86 85 85 87 87 86 90 89 89 89 89 86 81 77 76 78 79 79 79 78 79 79 80 75 71 70 69 70 71 68 51 57 55
MSLP
1003.76 1003.06 1001.99 1001.33 1001.47 1001.83 1001.71 1001.35 1000.98 1001.14 1002.03 1002.20 1001.81 1002.10 1002.55 1003.44 1003.88 1004.07 1004.77 1005.33 1005.73 1006.12 1006.84 1007.51 1008.20 1008.61 1009.18 1009.88 1010.63 1011.46 1012.12 1012.69 1013.25 1013.49 1013.58 1013.67 1013.56 1013.67 1013.85 1013.88 1014.28 1014.66 1014.65 1015.07
1003.16 1002.15 1001.54 1001.76 1001.99 1001.85 1001.50 1001.02 1000.62 1001.09 1001.98 1001.96 1001.32 1001.31 1001.50 1002.47 1003.07 1003.53 1003.96 1004.48 1004.91 1005.42 1005.98 1006.86 1007.44 1008.06 1008.53 1009.23 1010.06 1010.95 1011.66 1012.32 1012.90 1012.91 1013.12 1013.13 1013.17 1013.19 1013.33 1013.35 1013.72 1014.02 1014.24 1014.56
1001.98 1001.11 1001.24 1001.97 1001.62 1001.49 1000.86 1000.66 1001.13 1001.31 1001.31 1001.47 1000.94 999.86 1000.66 1001.40 1002.34 1002.90 1003.32 1003.69 1004.05 1004.54 1005.13 1005.85 1006.62 1007.23 1007.98 1008.56 1009.43 1010.08 1010.80 1011.45 1012.18 1012.47 1012.92 1013.25 1013.45 1013.58 1013.35 1013.29 1013.34 1013.45 1013.85 1014.24
1001.75 1001.41 1001.85 1001.63 1001.33 1001.25 1000.54 1001.15 1001.28 1001.15 1000.60 999.90 1000.66 999.44 999.57 1000.46 1001.35 1001.91 1002.31 1002.75 1003.18 1003.59 1004.39 1004.86 1005.52 1006.31 1006.96 1007.77 1008.52 1009.36 1010.22 1011.01 1011.50 1012.08 1012.13 1012.54 1012.53 1012.42 1012.35 1012.83 1013.21 1013.68 1014.04 1013.99
1001.24 1001.48 1001.62 1001.36 1000.92 1001.16 1000.90 1001.50 1001.41 1001.06 1000.03 999.76 999.98 999.10 998.67 999.92 1000.08 1000.54 1001.19 1001.55 1002.18 1002.56 1003.23 1003.89 1004.43 1005.09 1005.89 1006.77 1007.61 1008.47 1009.43 1010.37 1010.89 1011.47 1011.70 1011.96 1012.35 1012.09 1012.36 1012.69 1013.67 1013.80 1014.11 1014.11
1001.46 1001.90 1001.59 1000.76 1000.53 1001.02 1001.59 1001.41 1000.92 1000.43 999.59 998.71 999.34 999.45 997.81 998.21 998.69 999.05 999.99 1000.59 1001.26 1001.91 1002.42 1003.05 1003.78 1004.44 1005.18 1006.07 1006.95 1007.81 1008.82 1009.83 1010.51 1011.04 1011.59 1011.68 1011.62 1012.01 1012.06 1012.60 1012.89 1012.98 1013.47 1014.02
1001.06 1001.05 1001.14 1001.32 1000.48 1001.09 1001.19 1000.39 999.42 998.76 998.13 998.26 999.32 998.89 997.81 997.80 998.12 998.58 999.00 999.85 1000.57 1001.23 1002.01 1002.40 1002.99 1003.64 1004.52 1005.30 1006.29 1007.22 1008.11 1009.12 1009.85 1010.39 1010.82 1011.15 1011.48 1011.89 1012.16 1012.34 1012.31 1012.55 1012.99 1013.36
999.92 999.59 1000.02 1000.40 1000.49 1000.00 1000.09 999.75 998.88 998.21 997.97 998.09 999.10 997.89 996.94 997.51 997.91 998.38 998.82 999.32 1000.02 1000.60 1001.18 1001.79 1002.31 1003.02 1003.94 1004.80 1005.61 1006.51 1007.29 1008.39 1009.22 1009.80 1010.24 1010.76 1011.28 1011.43 1011.77 1012.05 1011.93 1012.55 1012.73 1013.31
999.75 999.64 999.97 1000.21 999.97 1000.21 999.64 999.83 999.25 998.68 998.21 998.37 997.40 997.35 996.63 997.19 997.48 998.10 998.51 999.00 999.49 999.93 1000.46 1001.24 1001.76 1002.52 1003.31 1004.16 1005.00 1005.94 1006.69 1007.53 1008.23 1008.71 1009.47 1010.07 1010.70 1011.10 1011.04 1011.48 1012.22 1012.46 1012.84 1013.32
1000.13 1000.03 999.80 1000.03 1000.42 1000.19 999.69 999.10 998.98 998.71 998.20 997.74 996.96 996.86 996.53 997.01 997.30 997.96 998.23 998.63 999.04 999.60 1000.09 1000.73 1001.45 1001.98 1002.74 1003.28 1004.16 1005.14 1005.90 1006.61 1007.34 1007.93 1008.77 1009.42 1010.00 1010.61 1010.99 1011.52 1011.99 1012.02 1012.50 1013.11
1000.68 1000.26 999.67 1000.03 999.51 998.62 999.58 999.07 998.89 998.31 997.91 997.53 997.00 996.14 996.91 997.45 998.10 998.16 998.11 998.51 998.76 999.49 1000.04 1000.51 1001.09 1001.50 1002.09 1002.73 1003.31 1004.03 1005.17 1005.87 1006.63 1007.37 1008.09 1008.82 1009.36 1009.90 1010.44 1010.86 1011.48 1012.04 1012.58 1013.22
1000.81 999.91 999.16 998.73 998.83 999.23 998.39 998.03 997.94 997.82 997.67 997.72 997.52 996.91 997.51 998.34 998.65 998.89 999.02 998.89 999.08 999.39 999.73 1000.24 1000.75 1001.46 1001.89 1002.32 1002.88 1003.44 1004.20 1005.17 1006.16 1006.92 1007.64 1008.32 1008.80 1009.30 1009.66 1010.32 1011.07 1011.73 1012.30 1012.94
1001.06 1000.34 998.90 998.47 998.69 999.39 998.76 998.43 998.25 997.64 997.21 996.87 996.91 996.58 997.98 998.84 999.34 999.74 999.68 999.52 999.60 999.78 1000.01 1000.21 1000.25 1000.77 1001.83 1002.38 1002.75 1003.45 1004.13 1004.68 1005.70 1006.50 1007.12 1007.70 1008.33 1008.82 1009.17 1010.04 1010.81 1011.60 1012.10 1012.73
1001.56 999.58 998.81 997.68 997.55 997.52 997.87 998.05 998.06 997.70 996.90 996.63 996.80 996.48 997.14 998.97 999.80 1000.02 1000.04 1000.03 999.89 999.59 999.71 999.96 1000.28 1000.63 1001.21 1002.11 1002.76 1003.44 1003.93 1004.47 1005.17 1005.91 1006.64 1007.22 1007.92 1008.52 1009.23 1010.03 1010.71 1011.36 1011.77 1012.18
1001.08 999.59 999.56 998.98 998.91 998.42 997.82 997.43 997.67 997.54 996.93 996.69 997.14 997.31 997.65 999.54 1000.10 1000.39 1000.40 1000.03 999.73 999.31 999.11 999.30 999.82 1000.32 1000.98 1001.60 1002.20 1002.96 1003.63 1004.11 1004.82 1005.76 1006.46 1007.13 1007.84 1008.48 1009.05 1009.83 1010.69 1011.34 1012.00 1012.51
1000.74 1000.07 1000.02 999.31 999.34 998.81 998.22 997.78 997.77 997.82 997.96 997.82 997.92 997.97 998.88 999.85 1000.16 1000.46 1000.55 1000.47 1000.06 999.64 999.09 998.84 999.19 999.57 1000.03 1000.73 1001.37 1002.27 1003.30 1004.03 1004.63 1005.42 1006.06 1006.74 1007.22 1007.70 1008.31 1009.43 1010.12 1010.68 1011.29 1011.92
1001.16 1000.12 1000.01 999.02 999.53 999.21 998.49 998.08 998.00 998.07 998.23 998.01 997.89 998.24 999.42 999.84 1000.27 1000.80 1000.86 1000.74 1000.62 1000.30 999.87 999.16 998.94 999.00 999.13 999.71 1000.60 1001.55 1002.69 1003.73 1004.62 1005.31 1005.88 1006.54 1006.99 1007.63 1008.46 1009.57 1010.34 1010.69 1011.19 1011.91
1001.69 1001.05 1000.76 999.39 999.88 999.25 998.96 999.30 999.20 999.06 998.93 998.91 998.96 999.30 1000.05 1000.44 1000.75 1001.10 1001.34 1001.14 1000.90 1000.51 1000.02 999.75 999.28 998.70 998.95 999.09 999.85 1001.00 1002.25 1003.40 1004.19 1005.09 1006.04 1007.32 1008.54 1009.61 1010.73 1011.32 1012.27 1010.01 1011.16 1011.80
1002.21 1001.57 1000.75 1000.36 1000.21 999.17 999.24 999.83 1000.02 999.88 999.13 999.43 999.76 1000.12 1000.70 1000.90 1000.85 1001.13 1001.90 1001.80 1001.22 1000.34 999.85 999.61 999.35 999.34 999.46 999.67 1000.19 1001.19 1002.13 1003.21 1004.19 1005.11 1006.55 1007.67 1008.72 1009.99 1010.28 1010.71 1011.63 1010.44 1010.75 1011.84
1002.17 1002.09 1001.79 1000.98 1000.30 999.22 999.02 999.46 1000.59 1000.88 1000.22 1000.82 1000.85 1001.07 1001.20 1001.12 1000.58 1000.90 1002.16 1002.14 1001.66 1001.03 1000.32 999.93 999.74 999.67 1000.03 1000.60 1001.25 1001.79 1002.48 1003.51 1004.68 1006.07 1006.71 1007.67 1008.31 1008.81 1008.48 1007.14 1009.07 1010.06 1011.14 1011.63
1001.94 1002.11 1001.48 1001.04 1001.06 1000.76 1001.13 1001.41 1001.77 1001.54 1002.28 1002.33 1002.15 1002.16 1001.94 1001.41 1002.40 1002.60 1002.54 1002.33 1002.16 1001.50 1001.10 1000.62 1000.51 1000.46 1000.79 1001.23 1001.65 1002.45 1003.36 1004.50 1005.88 1006.96 1007.48 1007.99 1008.06 1007.37 1007.80 1008.15 1009.83 1010.56 1012.19 1012.29
1002.88 1002.18 1001.52 1001.63 1001.64 1001.83 1002.38 1002.32 1002.29 1003.12 1002.93 1003.05 1002.86 1002.90 1002.99 1002.98 1002.85 1002.67 1002.61 1002.30 1001.99 1001.73 1001.51 1001.22 1001.42 1001.46 1001.60 1001.80 1002.11 1003.15 1004.22 1005.39 1006.33 1006.94 1007.41 1008.01 1008.12 1008.23 1008.21 1008.44 1008.29 1010.37 1011.98 1012.50
1004.47 1003.58 1003.07 1002.69 1002.36 1003.29 1003.42 1003.37 1003.40 1003.41 1003.61 1003.60 1003.40 1003.13 1003.07 1002.99 1002.83 1002.71 1002.52 1002.16 1001.95 1001.98 1002.04 1001.96 1002.03 1002.77 1003.01 1003.07 1003.53 1004.29 1005.01 1005.57 1006.07 1007.02 1007.78 1007.86 1007.68 1008.16 1008.23 1009.29 1009.83 1010.33 1011.47 1012.47
1005.38 1005.30 1004.14 1003.84 1003.12 1003.26 1003.52 1003.53 1003.42 1003.52 1003.60 1003.65 1003.52 1003.37 1003.18 1003.03 1002.78 1002.48 1002.43 1002.11 1002.00 1002.24 1002.54 1002.66 1002.80 1003.21 1003.62 1003.94 1004.26 1004.97 1005.58 1006.04 1006.45 1006.66 1007.10 1008.00 1008.31 1008.37 1009.05 1009.50 1009.41 1010.23 1011.29 1011.62
1006.21 1005.80 1004.74 1003.95 1003.67 1003.44 1003.63 1003.81 1003.74 1003.74 1003.77 1003.70 1003.52 1003.35 1003.12 1002.87 1002.54 1002.38 1002.21 1002.18 1002.13 1002.24 1002.78 1003.11 1003.35 1003.78 1004.15 1004.40 1004.48 1004.99 1005.50 1005.89 1006.27 1006.73 1006.83 1007.52 1007.91 1008.76 1009.22 1009.42 1009.50 1010.26 1010.77 1010.84
1005.98 1005.04 1004.64 1003.86 1004.34 1004.40 1004.14 1003.93 1004.14 1003.99 1003.72 1003.59 1003.46 1003.26 1002.94 1002.75 1002.40 1002.00 1001.88 1002.03 1002.18 1002.18 1002.71 1003.30 1003.81 1004.11 1004.36 1004.57 1004.66 1004.75 1005.15 1005.61 1005.92 1006.15 1006.28 1007.56 1008.36 1008.77 1009.13 1009.49 1010.00 1010.89 1011.07 1011.39
Wind_Speed
9 10 13 11 3 9 10 12 12 11 6 6 6 6 7 15 16 15 15 16 18 19 19 18 16 15 14 13 13 13 13 11 9 9 8 7 7 6 6 6 5 7 7 6
8 15 14 4 7 11 12 13 9 3 4 7 5 11 10 15 18 16 16 17 18 18 20 19 17 16 15 15 14 14 13 13 12 9 7 6 4 5 4 4 4 5 6 5
18 6 3 9 13 12 13 8 11 13 5 5 10 6 1 7 16 17 17 16 18 18 20 20 20 17 16 15 15 15 16 15 14 12 8 6 5 5 5 5 5 3 2 3
14 18 8 10 11 12 15 5 7 8 8 6 5 7 2 4 12 17 18 18 18 19 19 20 21 20 18 16 16 15 14 15 14 14 11 12 8 7 5 3 2 2 2 4
11 8 13 20 18 5 10 6 7 8 10 9 9 8 6 5 8 13 19 20 20 20 20 20 21 21 18 17 15 14 14 14 14 14 13 11 11 7 6 4 5 1 3 4
16 4 7 13 17 10 4 10 11 8 10 11 8 6 4 4 5 7 15 19 21 20 20 20 20 19 18 17 14 14 14 14 15 15 15 14 11 10 7 6 5 5 5 6
14 15 12 7 9 11 10 13 10 8 7 4 4 9 7 7 5 5 11 16 18 18 18 19 20 19 18 18 16 14 15 15 15 16 15 16 14 12 10 8 7 4 4 4
9 11 19 13 17 13 13 16 11 7 8 6 6 5 6 6 4 5 6 8 14 18 18 19 20 19 18 17 18 17 16 15 15 16 16 13 13 10 9 9 6 6 4 4
6 8 3 8 16 17 12 11 12 12 9 9 4 4 11 3 2 7 8 8 11 16 18 18 18 18 18 18 18 17 16 15 16 17 13 14 13 13 10 9 9 7 5 6
5 10 3 7 5 7 15 7 10 11 12 11 3 5 2 10 6 4 6 6 9 12 16 16 16 17 17 18 18 17 17 17 16 15 13 12 13 13 11 9 10 10 9 9
15 11 6 7 13 12 11 13 11 12 7 10 10 1 9 7 4 4 2 2 8 10 12 14 15 15 16 15 16 18 16 16 15 14 13 12 12 13 12 12 12 11 12 11
18 9 13 13 7 3 6 11 18 11 15 8 9 4 11 8 8 4 1 2 2 3 7 10 12 12 14 15 15 16 16 16 14 13 13 13 13 13 13 13 14 14 13 13
8 10 10 12 11 7 11 14 14 12 10 9 10 4 11 9 8 8 6 4 5 7 7 8 10 13 13 13 14 15 13 14 14 14 14 14 13 13 14 14 14 14 14 13
6 13 12 11 8 7 19 10 12 15 12 13 11 12 5 10 9 9 9 7 8 8 10 10 8 8 9 11 11 12 15 15 15 15 15 14 14 12 12 13 13 14 15 15
8 11 4 11 9 8 11 15 14 15 15 6 6 4 9 9 11 10 8 9 9 9 10 11 11 10 11 12 13 14 13 13 14 13 13 12 11 11 12 12 14 13 14 12
6 9 5 7 5 9 11 11 14 12 4 5 4 8 6 8 8 8 9 9 8 10 9 10 11 11 11 12 13 13 12 12 13 13 14 14 14 15 15 14 15 14 13 12
7 7 8 10 3 5 11 13 13 12 5 6 7 9 5 6 7 9 10 11 11 10 12 11 10 11 11 11 12 13 13 12 12 12 13 14 15 16 15 16 15 14 14 13
8 8 4 10 3 12 8 4 5 7 4 7 5 3 6 7 6 8 12 13 13 13 10 8 11 11 11 12 13 12 13 13 14 13 12 11 10 9 7 7 4 16 14 14
7 10 8 9 13 13 5 6 7 8 5 9 6 5 4 1 4 10 13 14 15 17 14 9 6 7 4 7 8 11 12 13 13 14 12 12 13 14 10 3 8 17 16 13
6 7 8 11 13 16 14 11 6 2 8 12 2 4 5 2 10 12 11 14 15 16 16 14 9 3 5 4 7 10 12 12 12 12 15 16 12 11 3 10 13 12 12 12
9 7 11 11 12 11 8 5 2 10 5 5 7 7 8 5 8 9 9 12 13 12 14 12 9 7 7 7 8 8 10 11 14 15 14 11 10 11 3 7 10 9 8 10
9 8 9 8 7 12 4 6 6 8 5 6 4 3 5 5 7 7 9 12 11 9 10 10 9 8 7 6 10 12 12 14 16 17 13 8 8 4 9 13 15 15 11 11
5 5 8 5 6 6 3 4 3 6 5 5 7 8 6 7 8 7 8 10 9 5 6 8 7 7 5 5 6 9 10 15 18 15 4 8 7 6 8 11 11 11 11 10
2 3 5 5 4 1 2 3 3 4 7 7 6 8 8 8 9 8 7 8 7 4 5 5 5 5 6 7 7 10 12 11 11 10 7 6 7 8 11 8 10 12 10 10
4 2 3 8 5 3 6 2 5 7 8 7 7 8 8 9 10 8 6 5 5 4 1 2 2 3 3 5 8 10 10 9 8 6 6 5 6 9 9 9 10 11 12 10
5 4 6 5 10 6 11 10 7 13 12 9 8 9 9 9 12 11 7 5 5 4 5 5 4 4 5 5 7 8 9 9 8 7 5 7 8 8 8 9 8 17 9 12
Wind_Direction
203 233 229 241 331 318 305 309 319 6 47 279 276 258 206 191 202 196 184 187 190 194 191 192 206 205 201 202 197 201 201 194 193 194 202 212 223 219 230 238 243 254 252 250
193 234 247 270 276 278 292 296 341 70 58 270 311 278 221 204 206 206 199 191 193 194 192 195 202 208 205 200 206 201 209 196 201 204 210 219 227 223 243 238 243 250 258 268
239 239 234 230 255 265 269 320 345 335 321 215 296 206 90 199 209 207 206 211 196 189 196 195 200 204 209 210 202 208 205 203 201 216 202 206 236 243 226 213 225 189 227 203
253 252 217 232 242 263 268 29 323 326 288 2 341 341 77 172 202 210 211 207 207 199 195 197 202 203 210 210 210 214 210 210 203 200 206 213 227 233 214 216 51 17 168 184
229 219 224 241 246 292 293 343 325 302 285 287 125 280 99 161 225 213 211 210 209 203 198 198 202 201 209 209 210 213 210 209 213 199 216 202 223 226 220 204 146 195 176 194
267 123 255 251 239 222 316 260 246 250 267 273 72 319 285 47 326 182 200 208 204 205 207 205 202 202 203 208 208 211 200 207 204 203 203 214 214 222 224 203 204 201 192 170
216 233 223 243 197 195 230 250 262 245 232 323 60 287 305 316 291 242 188 196 203 202 208 206 207 205 202 207 205 211 203 205 201 201 205 210 213 207 212 217 216 209 196 184
224 213 210 204 235 227 216 250 271 285 296 342 146 272 340 346 314 205 176 181 200 205 203 210 203 205 201 206 209 211 205 205 199 200 208 210 210 209 211 207 221 208 199 169
217 240 85 258 216 223 211 235 267 290 245 259 287 329 268 124 264 201 208 208 208 204 203 199 201 202 204 205 208 208 207 201 201 201 203 203 203 216 208 208 191 196 179 135
263 273 184 132 190 229 260 283 216 226 267 270 352 287 295 1 19 172 218 215 201 203 201 196 203 198 203 207 205 204 204 202 199 204 200 203 202 203 205 192 195 181 167 166
238 246 148 180 206 205 193 221 236 296 295 294 281 44 66 34 34 337 170 168 173 171 189 200 201 209 201 208 208 203 203 205 201 198 197 202 198 197 194 191 190 179 167 164
221 252 236 229 132 314 298 238 235 228 241 243 293 334 74 52 33 17 307 311 143 188 189 196 200 210 214 207 209 208 201 204 201 195 194 197 196 195 191 191 184 176 170 164
163 231 241 225 188 193 234 224 236 263 278 256 254 152 96 70 36 19 351 312 253 229 208 212 216 201 207 217 210 206 206 204 199 193 193 194 193 195 195 187 177 175 165 164
257 258 247 264 257 244 206 217 223 228 222 239 224 279 72 39 9 349 338 315 279 254 231 226 224 215 208 214 220 212 209 207 199 197 196 195 192 192 191 182 178 175 168 166
260 261 278 272 294 275 259 222 201 223 255 256 59 288 20 6 351 345 319 317 295 270 222 215 216 216 214 219 216 210 216 202 196 195 192 190 183 179 179 170 176 171 171 168
228 272 262 245 243 244 232 225 199 214 227 273 289 290 69 351 353 3 5 349 332 306 274 231 226 223 214 208 204 201 200 195 189 184 185 176 175 175 174 165 173 168 166 151
280 301 236 238 196 224 232 201 205 194 216 274 253 42 2 355 19 15 356 2 356 341 313 293 259 241 233 205 194 190 187 179 177 178 181 177 180 175 169 170 170 167 157 144
295 269 274 288 225 228 74 51 311 259 238 223 276 317 17 11 63 51 36 17 12 3 331 295 275 255 239 218 187 183 169 172 175 172 167 162 157 148 138 167 227 166 149 153
225 286 275 257 235 258 207 185 210 229 222 229 278 355 18 40 168 86 37 9 2 356 6 348 308 278 274 223 165 156 159 163 163 159 137 130 119 90 100 209 286 253 159 155
229 254 270 254 262 260 246 113 122 188 219 355 353 335 349 273 244 82 10 0 357 353 5 11 11 59 126 145 144 154 151 156 140 123 123 117 130 145 182 41 293 193 158 139
210 240 242 225 241 258 48 79 191 233 44 0 347 21 4 23 15 354 353 346 344 343 0 2 30 45 95 133 135 147 134 122 122 124 136 146 184 206 80 90 116 155 156 133
259 256 243 232 276 243 55 124 288 24 348 1 350 15 5 354 336 345 342 345 342 334 2 12 45 51 72 123 133 138 136 132 144 155 163 203 244 208 160 159 148 149 148 139
252 294 329 323 21 78 76 10 7 12 7 337 309 305 304 308 315 317 327 345 6 356 10 21 50 75 56 98 130 138 143 151 163 161 198 269 161 165 145 155 141 137 145 147
184 316 264 297 125 315 95 58 31 17 1 340 328 313 288 279 288 307 321 346 356 352 320 1 17 84 115 116 122 143 159 170 174 184 202 185 161 132 152 159 148 151 156 170
20 236 307 258 257 283 170 314 341 346 341 357 346 338 300 270 253 268 263 307 334 14 26 340 30 55 105 132 138 155 167 163 189 194 153 143 155 160 156 160 156 167 175 179
203 230 249 295 354 338 316 333 319 315 307 304 318 322 304 270 258 245 242 263 282 281 153 157 157 163 167 162 147 154 147 169 186 209 162 166 166 159 146 145 107 38 72 95